Orlando International, FL

2:18 AM EST on January 17, 2018 (GMT -0500)
Orlando International

Weather History for KMCO - June, 2014

Change the Weather History Date:

Friday, June 20, 2014

  Actual Average Record
Temperature  
Mean Temperature 84 °F 82 °F  
Max Temperature 94 °F 91 °F 99 °F (1998)
Min Temperature 73 °F 73 °F 64 °F (1933)
Degree Days  
Heating Degree Days 0 0  
Month to date heating degree days 0 0  
Since 1 June heating degree days 0 0  
Since 1 July heating degree days 406 571  
Cooling Degree Days 19 17  
Month to date cooling degree days 312 320  
Year to date cooling degree days 1246 1121  
Since 1 June cooling degree days 312 320  
Growing Degree Days 33 (Base 50)    
Moisture  
Dew Point 71 °F    
Average Humidity 67    
Maximum Humidity 93    
Minimum Humidity 41    
Precipitation  
Precipitation T in 0.26 in 2.00 in (1975)
Month to date precipitation 2.56 5.05  
Year to date precipitation 19.91 19.68  
Sea Level Pressure  
Sea Level Pressure 30.04 in    
Wind  
Wind Speed 7 mph (West)    
Max Wind Speed 18 mph    
Max Gust Speed 25 mph    
Visibility 10 miles    
Events Thunderstorm    
T = Trace of Precipitation, MM = Missing Value Source: NWS Daily Summary

Daily Weather History Graph

Daily Weather History Graph

Search for Another Location

Airport or City:

Trip Planner

Search our weather history database for the weather conditions in past years. The results will help you decide how hot, cold, wet, or windy it might be!

Date:

Astronomy

Jun. 20, 2014 Rise Set
Actual Time 6:28 AM EDT 8:25 PM EDT
Civil Twilight 6:01 AM EDT 8:52 PM EDT
Nautical Twilight 5:28 AM EDT 9:24 PM EDT
Astronomical Twilight 4:54 AM EDT 9:59 PM EDT
Moon 1:38 AM EDT (6/20) 2:23 PM EDT (6/20)
Length of Visible Light 14h 51m
Length of Day
13h 57m
Last Quarter, 40% of the Moon is Illuminated
Jun 20
Last Quarter
Jun 27
New
Jul 5
First Quarter
Jul 12
Full
Jul 18
Last Quarter

Hourly Weather History & Observations

Time (EDT) Temp. Heat Index Dew Point Humidity Pressure Visibility Wind Dir Wind Speed Gust Speed Precip Events Conditions
12:18 AM 75.9 °F - 71.1 °F 85% 30.11 in 10.0 mi SW 5.8 mph - N/A   Mostly Cloudy
12:53 AM 75.9 °F - 71.1 °F 85% 30.09 in 10.0 mi SW 5.8 mph - N/A   Mostly Cloudy
1:53 AM 75.0 °F - 71.1 °F 87% 30.07 in 10.0 mi Calm Calm - N/A   Mostly Cloudy
2:53 AM 73.9 °F - 70.0 °F 87% 30.05 in 10.0 mi Calm Calm - N/A   Scattered Clouds
3:53 AM 75.0 °F - 70.0 °F 84% 30.04 in 10.0 mi SW 4.6 mph - N/A   Scattered Clouds
4:53 AM 73.9 °F - 71.1 °F 91% 30.03 in 10.0 mi West 5.8 mph - N/A   Clear
5:53 AM 73.9 °F - 70.0 °F 87% 30.04 in 10.0 mi West 3.5 mph - N/A   Partly Cloudy
6:53 AM 73.9 °F - 70.0 °F 87% 30.05 in 10.0 mi West 6.9 mph - N/A   Scattered Clouds
7:53 AM 77.0 °F - 70.0 °F 79% 30.06 in 10.0 mi West 8.1 mph - N/A   Partly Cloudy
8:53 AM 80.1 °F 83.8 °F 72.0 °F 76% 30.08 in 10.0 mi West 10.4 mph - N/A   Scattered Clouds
9:53 AM 82.9 °F 88.0 °F 72.0 °F 69% 30.08 in 10.0 mi WNW 8.1 mph - N/A   Scattered Clouds
10:53 AM 87.1 °F 94.5 °F 73.0 °F 63% 30.07 in 10.0 mi NW 10.4 mph - N/A   Mostly Cloudy
11:53 AM 89.1 °F 96.0 °F 72.0 °F 57% 30.06 in 10.0 mi West 8.1 mph - N/A   Scattered Clouds
12:46 PM 89.1 °F 95.0 °F 71.1 °F 55% 30.05 in 10.0 mi NNW 9.2 mph - N/A Thunderstorm Thunderstorm
12:53 PM 89.1 °F 94.1 °F 70.0 °F 53% 30.04 in 10.0 mi NW 11.5 mph 18.4 mph N/A Thunderstorm Thunderstorm
1:27 PM 90.0 °F 94.5 °F 69.1 °F 50% 30.03 in 10.0 mi WNW 13.8 mph - N/A   Scattered Clouds
1:53 PM 91.9 °F 96.9 °F 69.1 °F 47% 30.02 in 10.0 mi West 10.4 mph - N/A   Mostly Cloudy
2:53 PM 93.0 °F 96.4 °F 66.9 °F 42% 30.00 in 10.0 mi West 12.7 mph 18.4 mph N/A   Mostly Cloudy
3:39 PM 91.9 °F 94.5 °F 66.0 °F 42% 30.00 in 10.0 mi NW 11.5 mph 19.6 mph N/A Thunderstorm Thunderstorm
3:53 PM 86.0 °F 93.0 °F 73.0 °F 65% 29.99 in 10.0 mi NE 15.0 mph - N/A Thunderstorm Thunderstorm
4:00 PM 84.0 °F 90.2 °F 73.0 °F 69% 30.00 in 10.0 mi ENE 17.3 mph 25.3 mph N/A Thunderstorm Thunderstorm
4:53 PM 81.0 °F 85.2 °F 72.0 °F 74% 30.00 in 10.0 mi SE 12.7 mph - 0.00 in Thunderstorm Thunderstorm
5:53 PM 79.0 °F - 72.0 °F 79% 30.00 in 10.0 mi SSW 9.2 mph - N/A Thunderstorm Thunderstorm
6:25 PM 79.0 °F - 72.0 °F 79% 29.98 in 10.0 mi WSW 5.8 mph - N/A   Mostly Cloudy
6:53 PM 80.1 °F 84.2 °F 73.0 °F 79% 30.00 in 10.0 mi WNW 5.8 mph - N/A   Mostly Cloudy
7:53 PM 80.1 °F 83.6 °F 71.1 °F 74% 30.01 in 10.0 mi WSW 5.8 mph - N/A   Mostly Cloudy
8:53 PM 77.0 °F - 73.0 °F 88% 30.02 in 10.0 mi South 4.6 mph - N/A   Overcast
9:53 PM 75.9 °F - 72.0 °F 87% 30.03 in 10.0 mi South 6.9 mph - N/A   Overcast
10:53 PM 77.0 °F - 72.0 °F 84% 30.04 in 10.0 mi WNW 5.8 mph - N/A   Mostly Cloudy
11:53 PM 73.9 °F - 72.0 °F 93% 30.01 in 10.0 mi South 5.8 mph - N/A   Overcast